Location: Unspecified
(37.6100°N, 2.7800°W)
Time: 22:26:53
(UTC+00:00)

ISS - Visible Passes

Search period start: 24 June 2018 00:00
Search period end: 04 July 2018 00:00
Orbit: 402 x 407 km, 51.6° (Epoch: 25 June)

Date Brightness Start Highest point End Pass type
(mag) Time Alt. Az. Time Alt. Az. Time Alt. Az.
29 Jun -0.9 04:00:27 10° SE 04:01:01 10° SE 04:01:34 10° ESE visible
01 Jul -2.2 03:50:19 11° S 03:52:55 27° SE 03:55:45 10° ENE visible
02 Jul -1.4 03:00:19 13° SE 03:00:57 13° SE 03:02:39 10° E visible
03 Jul -3.8 03:42:55 21° SW 03:44:55 75° SE 03:48:12 10° NE visible
